Location: Unspecified
(64.9000°N, 0.0000°E)
Time: 09:17:17
(UTC+00:00)

Altair - Pass Details

Date: 23 June 2019
Orbit: 1501 x 1683 km, 47.2° (Epoch: 17 July)

Event Time Altitude Azimuth Distance (km) Brightness Sun altitude
Rises 18:08:42 0° 174° (S) 4,719 9.9 20.4°
Reaches altitude 10° 18:15:51 10° 138° (SE) 3,795 9.2 19.7°
Maximum altitude 18:17:09 10° 130° (SE) 3,779 9.1 19.6°
Drops below altitude 10° 18:18:28 10° 122° (ESE) 3,818 9.1 19.4°
Sets 18:25:48 0° 87° (E) 4,864 9.6 18.7°
